BAW14 YMML-YSSY

Flight info

Callsign BAW14
Flight time 1h 11m
Altitude 35000
Route ML H129 DOSEL Y59 RIVET
Aircraft B742/H-SDFHIRWXY/L

Departure

Time 2026-05-04 10:08
Airport Melbourne Airport (YMML)

Arrival

Time 2026-05-04 11:19
Airport Sydney Kingsford Smith International Airport (YSSY)
Time Latitude Longitude Altitude Speed Heading
2026-05-04 08:55 -37.67381 144.84413 381 ft 0 kts 35°
2026-05-04 09:46 -37.67467 144.84296 379 ft 1 kts 185°
2026-05-04 09:46 -37.67454 144.84300 379 ft 2 kts 200°
2026-05-04 09:46 -37.67439 144.84306 379 ft 4 kts 203°
2026-05-04 09:47 -37.67401 144.84329 380 ft 5 kts 198°
2026-05-04 09:47 -37.67392 144.84332 380 ft 0 kts 205°
2026-05-04 09:49 -37.67390 144.84334 380 ft 0 kts 204°
2026-05-04 09:57 -37.67420 144.84319 379 ft 9 kts 197°
2026-05-04 09:57 -37.67479 144.84319 379 ft 7 kts 170°
2026-05-04 09:57 -37.67526 144.84329 378 ft 5 kts 171°
2026-05-04 09:58 -37.67561 144.84335 377 ft 5 kts 172°
2026-05-04 09:58 -37.67619 144.84346 376 ft 10 kts 172°
2026-05-04 09:58 -37.67706 144.84363 374 ft 13 kts 171°
2026-05-04 10:00 -37.68380 144.84442 346 ft 11 kts 212°
2026-05-04 10:00 -37.68446 144.84389 343 ft 10 kts 213°
2026-05-04 10:02 -37.68548 144.84267 341 ft 0 kts 253°
2026-05-04 10:05 -37.68549 144.84265 341 ft 1 kts 256°
2026-05-04 10:05 -37.68554 144.84229 341 ft 6 kts 261°
2026-05-04 10:05 -37.68561 144.84161 343 ft 7 kts 263°
2026-05-04 10:05 -37.68560 144.84116 343 ft 3 kts 288°
2026-05-04 10:06 -37.68554 144.84106 344 ft 0 kts 328°
2026-05-04 10:06 -37.68537 144.84100 344 ft 3 kts 348°
2026-05-04 10:06 -37.68449 144.84082 347 ft 41 kts 352°
2026-05-04 10:08 -37.63148 144.83144 3039 ft 176 kts 352°
2026-05-04 10:08 -37.61842 144.82999 3566 ft 197 kts 352°
2026-05-04 10:08 -37.60429 144.82843 4069 ft 218 kts 352°
2026-05-04 10:08 -37.58908 144.82678 4434 ft 209 kts 351°
2026-05-04 10:09 -37.57494 144.82544 4760 ft 201 kts 352°
2026-05-04 10:09 -37.56107 144.82622 4943 ft 204 kts 13°
2026-05-04 10:09 -37.54933 144.83720 5056 ft 226 kts 46°
2026-05-04 10:09 -37.54101 144.85487 5523 ft 238 kts 52°
2026-05-04 10:10 -37.53133 144.87103 6014 ft 219 kts 30°
2026-05-04 10:10 -37.51785 144.87773 6423 ft 208 kts 358°
2026-05-04 10:10 -37.50333 144.87885 6914 ft 215 kts
2026-05-04 10:10 -37.48919 144.88664 7404 ft 236 kts 35°
2026-05-04 10:11 -37.48009 144.90475 7908 ft 260 kts 69°
2026-05-04 10:11 -37.47920 144.92769 8432 ft 274 kts 92°
2026-05-04 10:11 -37.48162 144.95140 8993 ft 274 kts 89°
2026-05-04 10:11 -37.47951 144.97494 9511 ft 266 kts 60°
2026-05-04 10:12 -37.46923 144.99298 10025 ft 253 kts 33°
2026-05-04 10:12 -37.45543 145.00639 10596 ft 252 kts 31°
2026-05-04 10:12 -37.44276 145.02220 11146 ft 261 kts 44°
2026-05-04 10:12 -37.43093 145.03931 11709 ft 259 kts 39°
2026-05-04 10:13 -37.41840 145.05556 12262 ft 257 kts 39°
2026-05-04 10:13 -37.40623 145.07165 12262 ft 258 kts 39°
2026-05-04 10:13 -37.39372 145.08846 12059 ft 277 kts 40°
2026-05-04 10:13 -37.37987 145.10712 12046 ft 303 kts 41°
2026-05-04 10:14 -37.36594 145.12625 12367 ft 290 kts 41°
2026-05-04 10:14 -37.35199 145.14533 12421 ft 302 kts 41°
2026-05-04 10:16 -37.24197 145.29481 14112 ft 362 kts 42°
2026-05-04 10:16 -37.22490 145.31802 14482 ft 362 kts 42°
2026-05-04 10:16 -37.20773 145.34131 14853 ft 365 kts 42°
2026-05-04 10:16 -37.19037 145.36482 15228 ft 365 kts 42°
2026-05-04 10:17 -37.17351 145.38879 15600 ft 367 kts 45°
2026-05-04 10:17 -37.15749 145.41397 15976 ft 372 kts 47°
2026-05-04 10:19 -37.04992 145.60104 18863 ft 386 kts 47°
2026-05-04 10:19 -37.03428 145.62826 19371 ft 388 kts 47°
2026-05-04 10:19 -37.01848 145.65581 19877 ft 391 kts 46°
2026-05-04 10:19 -37.00262 145.68341 20387 ft 392 kts 46°
2026-05-04 10:20 -36.98650 145.71146 20904 ft 394 kts 46°
2026-05-04 10:20 -36.97049 145.73927 21410 ft 397 kts 46°
2026-05-04 10:20 -36.95446 145.76708 21919 ft 400 kts 45°
2026-05-04 10:20 -36.93795 145.79570 22438 ft 403 kts 45°
2026-05-04 10:21 -36.92157 145.82410 22957 ft 404 kts 45°
2026-05-04 10:21 -36.90499 145.85280 23473 ft 406 kts 44°
2026-05-04 10:21 -36.88834 145.88161 23980 ft 409 kts 44°
2026-05-04 10:21 -36.87151 145.91064 24487 ft 413 kts 44°
2026-05-04 10:22 -36.83775 145.96889 25484 ft 418 kts 44°
2026-05-04 10:22 -36.82061 145.99844 25980 ft 420 kts 44°
2026-05-04 10:22 -36.80340 146.02808 26484 ft 422 kts 44°
2026-05-04 10:23 -36.78622 146.05765 26981 ft 424 kts 44°
2026-05-04 10:23 -36.76875 146.08768 27477 ft 425 kts 44°
2026-05-04 10:25 -36.64706 146.29628 30903 ft 423 kts 44°
2026-05-04 10:25 -36.62983 146.32573 31372 ft 421 kts 44°
2026-05-04 10:25 -36.61268 146.35500 31840 ft 418 kts 44°
2026-05-04 10:25 -36.59560 146.38414 32306 ft 415 kts 43°
2026-05-04 10:26 -36.57868 146.41298 32774 ft 412 kts 43°
2026-05-04 10:26 -36.56177 146.44177 33248 ft 407 kts 43°
2026-05-04 10:26 -36.54517 146.47005 33703 ft 403 kts 43°
2026-05-04 10:26 -36.52874 146.49797 34058 ft 400 kts 43°
2026-05-04 10:27 -36.51246 146.52559 34357 ft 397 kts 43°
2026-05-04 10:27 -36.49622 146.55313 34645 ft 394 kts 43°
2026-05-04 10:27 -36.47979 146.58095 34851 ft 395 kts 43°
2026-05-04 10:28 -36.44704 146.63619 34970 ft 406 kts 43°
2026-05-04 10:28 -36.41298 146.69362 34974 ft 418 kts 43°
2026-05-04 10:29 -36.37863 146.75177 34977 ft 410 kts 43°
2026-05-04 10:29 -36.34507 146.80841 34989 ft 409 kts 42°
2026-05-04 10:30 -36.31103 146.86549 34981 ft 412 kts 42°
2026-05-04 10:30 -36.27697 146.92268 34986 ft 416 kts 42°
2026-05-04 10:31 -36.24201 146.98106 34985 ft 432 kts 43°
2026-05-04 10:32 -36.11880 147.18680 34996 ft 429 kts 43°
2026-05-04 10:33 -36.08286 147.24646 34998 ft 440 kts 43°
2026-05-04 10:33 -36.04586 147.30783 34993 ft 450 kts 43°
2026-05-04 10:34 -36.00783 147.37076 34991 ft 460 kts 43°
2026-05-04 10:34 -35.96914 147.43471 34992 ft 470 kts 43°
2026-05-04 10:35 -35.92970 147.49979 34991 ft 479 kts 44°
2026-05-04 10:35 -35.89056 147.56461 34994 ft 461 kts 43°
2026-05-04 10:36 -35.85190 147.62811 34995 ft 464 kts 43°
2026-05-04 10:36 -35.81234 147.69278 34997 ft 478 kts 43°
2026-05-04 10:37 -35.77189 147.75890 35001 ft 491 kts 43°
2026-05-04 10:37 -35.73049 147.82663 34997 ft 494 kts 43°
2026-05-04 10:39 -35.58859 148.05771 35006 ft 487 kts 43°
2026-05-04 10:40 -35.54781 148.12389 35006 ft 484 kts 43°
2026-05-04 10:40 -35.50721 148.18951 35006 ft 487 kts 43°
2026-05-04 10:41 -35.46598 148.25607 35009 ft 486 kts 43°
2026-05-04 10:41 -35.42498 148.32210 35012 ft 489 kts 43°
2026-05-04 10:42 -35.38387 148.38826 35012 ft 486 kts 44°
2026-05-04 10:42 -35.34269 148.45432 34993 ft 489 kts 44°
2026-05-04 10:43 -35.30133 148.52061 35015 ft 488 kts 44°
2026-05-04 10:44 -35.15684 148.75107 34728 ft 490 kts 43°
2026-05-04 10:45 -35.13578 148.78453 34422 ft 492 kts 43°
2026-05-04 10:45 -35.11505 148.81744 34125 ft 492 kts 43°
2026-05-04 10:45 -35.09436 148.85033 33822 ft 489 kts 43°
2026-05-04 10:45 -35.07364 148.88318 33475 ft 489 kts 44°
2026-05-04 10:46 -35.05273 148.91625 32982 ft 491 kts 44°
2026-05-04 10:46 -35.03192 148.94917 32479 ft 486 kts 44°
2026-05-04 10:46 -35.01170 148.98122 31988 ft 478 kts 44°
2026-05-04 10:46 -34.99128 149.01347 31497 ft 479 kts 44°
2026-05-04 10:47 -34.97051 149.04608 30996 ft 492 kts 44°
2026-05-04 10:47 -34.94962 149.07890 30499 ft 491 kts 45°
2026-05-04 10:47 -34.92902 149.11144 29997 ft 482 kts 45°
2026-05-04 10:47 -34.90882 149.14334 29473 ft 475 kts 45°
2026-05-04 10:49 -34.76381 149.37140 25711 ft 495 kts 48°
2026-05-04 10:49 -34.74481 149.40630 25182 ft 502 kts 52°
2026-05-04 10:50 -34.72707 149.44281 24650 ft 504 kts 54°
2026-05-04 10:51 -34.61054 149.70937 21876 ft 511 kts 56°
2026-05-04 10:52 -34.59382 149.74765 21501 ft 506 kts 56°
2026-05-04 10:52 -34.57786 149.78429 21102 ft 480 kts 56°
2026-05-04 10:52 -34.56278 149.81898 20745 ft 457 kts 56°
2026-05-04 10:54 -34.46511 150.04089 17468 ft 394 kts 56°
2026-05-04 10:54 -34.45258 150.06941 16990 ft 375 kts 55°
2026-05-04 10:56 -34.37511 150.24431 13213 ft 313 kts 54°
2026-05-04 10:56 -34.36471 150.26776 12699 ft 313 kts 54°
2026-05-04 10:56 -34.35450 150.29073 12195 ft 311 kts 54°
2026-05-04 10:57 -34.34427 150.31375 11683 ft 309 kts 55°
2026-05-04 10:57 -34.33407 150.33673 11164 ft 307 kts 55°
2026-05-04 10:57 -34.32413 150.35908 10653 ft 304 kts 55°
2026-05-04 10:57 -34.31407 150.38170 10158 ft 305 kts 55°
2026-05-04 10:58 -34.30407 150.40416 9631 ft 301 kts 56°
2026-05-04 10:58 -34.29433 150.42609 9434 ft 292 kts 55°
2026-05-04 10:58 -34.28480 150.44759 9232 ft 286 kts 55°
2026-05-04 10:58 -34.27547 150.46854 9034 ft 285 kts 55°
2026-05-04 10:59 -34.26607 150.48965 8897 ft 282 kts 55°
2026-05-04 10:59 -34.25681 150.51047 8762 ft 283 kts 55°
2026-05-04 10:59 -34.24750 150.53134 8618 ft 281 kts 56°
2026-05-04 10:59 -34.23824 150.55219 8543 ft 281 kts 55°
2026-05-04 11:00 -34.22893 150.57304 8477 ft 281 kts 56°
2026-05-04 11:01 -34.16463 150.71709 7451 ft 275 kts 55°
2026-05-04 11:02 -34.15552 150.73744 7304 ft 274 kts 55°
2026-05-04 11:02 -34.14630 150.75804 7164 ft 275 kts 55°
2026-05-04 11:05 -34.05075 151.04411 5993 ft 291 kts 131°
2026-05-04 11:06 -34.06490 151.06180 5999 ft 291 kts 133°
2026-05-04 11:06 -34.07922 151.07904 5992 ft 292 kts 140°
2026-05-04 11:06 -34.09664 151.09117 5995 ft 290 kts 162°
2026-05-04 11:06 -34.11606 151.09807 6002 ft 292 kts 168°
2026-05-04 11:08 -34.25294 151.14137 5996 ft 284 kts 168°
2026-05-04 11:10 -34.29029 151.23860 4911 ft 238 kts 43°
2026-05-04 11:12 -34.19392 151.24022 2954 ft 201 kts 346°
2026-05-04 11:12 -34.18010 151.23665 2942 ft 202 kts 346°
2026-05-04 11:12 -34.16645 151.23314 2941 ft 201 kts 346°
2026-05-04 11:12 -34.15271 151.22960 2955 ft 199 kts 346°
2026-05-04 11:13 -34.13912 151.22609 2947 ft 199 kts 346°
2026-05-04 11:13 -34.12579 151.22263 2959 ft 191 kts 346°
2026-05-04 11:13 -34.11317 151.21936 2812 ft 180 kts 346°
2026-05-04 11:13 -34.10128 151.21626 2651 ft 168 kts 346°
2026-05-04 11:14 -34.09037 151.21343 2515 ft 153 kts 347°
2026-05-04 11:14 -34.08025 151.21078 2261 ft 145 kts 347°
2026-05-04 11:14 -34.07060 151.20827 2074 ft 140 kts 347°
2026-05-04 11:16 -34.00317 151.19075 821 ft 142 kts 349°
2026-05-04 11:16 -33.99348 151.18823 633 ft 142 kts 349°
2026-05-04 11:16 -33.98370 151.18570 448 ft 144 kts 349°
2026-05-04 11:17 -33.97400 151.18321 284 ft 138 kts 351°
2026-05-04 11:17 -33.96453 151.18074 73 ft 140 kts 350°
2026-05-04 11:19 -33.93944 151.17390 27 ft 8 kts 291°
2026-05-04 11:19 -33.93947 151.17331 27 ft 2 kts 255°
2026-05-04 11:19 -33.93948 151.17328 27 ft 0 kts 255°
2026-05-04 11:19 -33.93948 151.17326 27 ft 0 kts 255°
2026-05-04 11:20 -33.93951 151.17313 27 ft 4 kts 256°
2026-05-04 11:20 -33.93962 151.17261 27 ft 7 kts 255°
2026-05-04 11:22 -33.94042 151.16797 27 ft 6 kts 297°
2026-05-04 11:22 -33.94023 151.16759 27 ft 4 kts 303°
2026-05-04 11:23 -33.94007 151.16730 27 ft 3 kts 305°
2026-05-04 11:23 -33.94000 151.16717 27 ft 3 kts 303°
2026-05-04 11:24 -33.93976 151.16675 27 ft 0 kts 303°